Погода в Знаменке

Россия / Тамбовская область     52°55′37″N   40°45′32″E
темп.,
°C
ветер,
м/с
пор.,
м/с
влажн.,
%
обл.,
%
осадки,
мм/ч
давл.,
гПа
погр.,
м
18 мая, вт
вт1800:00+18юв616657 0.0 1010304
03:00+17вюв6155750 0.0 1010270
06:00+16вюв5146492 0.0 1010216
09:00+22вюв613544 0.0 1009457
12:00+26вюв6114327 0.0 10091028
15:00+27вюв813485 0.0 10071310
18:00+24вюв714572 0.0 1006570
21:00+21вюв718511 0.0 1006581
19 мая, ср
ср1900:00+16юв2291100 0.0 100732
03:00+15ююв499782 0.1 1009283
06:00+16ююв36915 0.0 1009291
09:00+19ю467074 0.0 1010781
12:00+23юв575892 0.0 10081589
15:00+24ююв595972 0.2 10081770
18:00+22ююв51068100 0.6 1007490
21:00+17ююз4982100 0.6 1007216
20 мая, чт
чт2000:00+14ю41090100 2.1 1008455
03:00+13юв379171 2.6 1008337
06:00+13ююв510913 0.0 1008429
09:00+15ююв7977100 0.1 1009982
12:00+16ю7970100 0.1 10091238
15:00+18ю586868 0.2 10101268
18:00+17ю57754 0.1 1010589
21:00+13юз34925 0.6 101180
21 мая, пт
пт2100:00+12ююз359222 0.0 101187
03:00+12юз3796100 0.1 1011247
06:00+12юз4992100 0.0 1012466
09:00+15зюз577863 0.1 1013882
12:00+16зюз456690 0.1 10141077
15:00+16зсз4563100 0.1 10151012
18:00+16сз347063 0.0 1016681
21:00+12ссз3386100 0.0 101850
22 мая, сб
сб2200:00+11ссв2284100 0.0 101825
03:00+11в1182100 0.0 101911
06:00+11вюв3691100 0.9 1019180
09:00+12всв4795100 3.7 1019233
12:00+16св6881100 0.0 1018516
15:00+15св71186100 0.2 1017547
18:00+15св81488100 0.0 1016473
21:00+13всв71491100 0.0 1015347